Weather Roundup
Issued by NWS

Home | Current Version | Previous Version | Graphics & Text | Print | Product List | Glossary Off
Versions: 1 2 3 4 5 6 7 8 9 10 11 12 13 14 15 16 17 18 19 20 21 22 23 24 25 26 27 28 29 30 31 32 33 34 35 36 37 38 39 40 41 42 43 44 45 46 47 48 49 50

000
NZUS93 KARX 012259
HRRWXR

CURRENT HOURLY OBSERVATIONS ACROSS
MUCH OF THE UPPER MISSISSIPPI VALLEY
NATIONAL WEATHER SERVICE LA CROSSE WI
500 PM CST THU DEC 01 2016


...SOUTHEAST MINNESOTA...


CITY           SKY/WX    TMP DP  RH WIND       PRES   REMARKS
ROCHESTER      CLOUDY    35  32  88 W7        29.91R WCI  29
ROCHESTER/MAYO CLOUDY    36  32  84 W9        29.92R WCI  29
WINONA         CLOUDY    37  32  81 NW6       29.92  WCI  33
AUSTIN         CLOUDY    36  30  80 W8        29.92R WCI  29
ALBERT LEA     CLOUDY    37  36  93 W7        29.93R WCI  32
DODGE CENTER   RAIN      34  34 100 W9        29.91R WCI  26
PRESTON        CLOUDY    34  30  87 NW10G18   29.92R WCI  26
OWATONNA       CLOUDY    36  32  87 W8        29.93R WCI  29
FARIBAULT      CLOUDY    36  34  93 W6        29.93R WCI  31
$$

...ELSEWHERE IN MINNESOTA...


CITY           SKY/WX    TMP DP  RH WIND       PRES   REMARKS
MINNEAPOLIS    CLOUDY    37  28  70 NW15G21   29.92R WCI  28
INTNL FALLS    CLOUDY    28  20  71 N10       29.92R WCI  19
DULUTH         CLOUDY    29  23  78 N7        29.87R WCI  22
RED WING       CLOUDY    37  30  75 N3        29.91R
REDWOOD FALLS  CLOUDY    35  30  82 NW8       29.96R WCI  29
MANKATO        CLOUDY    36  32  85 W8        29.95R WCI  30
WORTHINGTON    CLOUDY    32  29  88 NW8       29.95F WCI  25
FAIRMONT       CLOUDY    34  31  88 NW10      29.96R WCI  26
$$

...SOUTHWEST WISCONSIN...


CITY           SKY/WX    TMP DP  RH WIND       PRES   REMARKS
LA CROSSE      CLOUDY    39  33  79 NW9       29.91R WCI  33
PRAIRIE DU CHI CLOUDY    37  31  78 W8        29.93R WCI  31
BOSCOBEL       CLOUDY    38  32  79 W5        29.93R WCI  34
LONE ROCK      NOT AVBL
PLATTEVILLE    CLOUDY    36  34  94 W13       29.91S WCI  27
FORT MC COY    CLOUDY    37  33  87 W7        29.89R WCI  31
MAUSTON-NEW LI CLOUDY    37  33  83 W9        29.87R WCI  31
VIROQUA        CLOUDY    34  33  94 W7        29.89R WCI  28
WIS DELLS      CLOUDY    37  32  80 W8        29.87R WCI  31
$$

...ELSEWHERE IN WISCONSIN...


CITY           SKY/WX    TMP DP  RH WIND       PRES   REMARKS
MILWAUKEE      CLOUDY    42  32  67 W10       29.86R
MADISON        CLOUDY    38  31  76 W5        29.88R WCI  34
GREEN BAY      CLOUDY    40  37  89 W9        29.81R WCI  34
EAU CLAIRE     NOT AVBL
BLACK RVR FLS  CLOUDY    37  34  87 W6        29.88R WCI  33
MEDFORD        CLOUDY    32  28  86 NW10      29.83R WCI  24
WAUSAU         CLOUDY    34  28  79 NW9       29.82R WCI  27
WIS RAPIDS     CLOUDY    36  33  89 W9        29.86R WCI  29
MARSHFIELD     CLOUDY    34  29  82 NW10      29.84R WCI  26
RICE LAKE      CLOUDY    33  27  78 W7        29.90R WCI  27
$$

...NORTHEAST IOWA...


CITY           SKY/WX    TMP DP  RH WIND       PRES   REMARKS
WATERLOO       CLOUDY    36  31  82 W9        29.95R WCI  29
DUBUQUE        CLOUDY    35  32  88 W10       29.93R WCI  27
DECORAH        CLOUDY    34  32  93 NW7       29.91R WCI  28
MASON CITY     CLOUDY    34  31  88 NW9       29.96R WCI  27
CHARLES CITY   CLOUDY    36  34  93 NW12      29.94S WCI  27
OELWEIN        CLOUDY    36  34  93 NW13      29.95R WCI  27
$$

...ELSEWHERE IN IOWA...


CITY           SKY/WX    TMP DP  RH WIND       PRES   REMARKS
DES MOINES     CLOUDY    37  29  72 NW9       30.01R WCI  30
IOWA CITY      CLOUDY    39  31  72 W10       29.99R WCI  32
FORT DODGE     CLOUDY    36  28  75 W6        29.98R WCI  31
MARSHALLTOWN   CLOUDY    36  33  89 W10       29.97R WCI  28
CEDAR RAPIDS   CLOUDY    36  34  92 W10       29.96R WCI  28
$$

...NORTHERN ILLINOIS...


CITY           SKY/WX    TMP DP  RH WIND       PRES   REMARKS
CHICAGO-OHARE  CLOUDY    38  33  82 W12       29.91R WCI  30
CHICAGO-MIDWAY CLOUDY    40  32  73 W14       29.92R WCI  32
MOLINE         CLOUDY    39  30  70 W10       29.97R WCI  32
ROCKFORD       DRIZZLE   37  34  89 W13       29.94R WCI  29
PEORIA         CLOUDY    37  30  75 W10       30.01R WCI  30
$$

NOTE: "FAIR" INDICATES FEW OR NO CLOUDS BELOW 12,000 FEET WITH NO
SIGNIFICANT WEATHER AND/OR OBSTRUCTIONS TO VISIBILITY. WIND
SPEEDS ARE IN MILES-PER-HOUR.




USA.gov is the U.S. government's official web portal to all federal, state and local government web resources and services.